This is the latest recevied weather packets stored in our database for station/object KR4ELZ. If no packets are shown the sender has not sent any weather packets the latest 10 day(s).
| Time | Temp. | Humidity | Pressure | Rain* | Wind** | Luminosity | Snow |
|---|---|---|---|---|---|---|---|
| 1777928731 | 27.78° C | 41% | 1010.6 hPa | 0 mm | - | 404 W/m² | - |
| 1777928428 | 27.78° C | 40% | 1010.5 hPa | 0 mm | - | 400 W/m² | - |
| 1777928126 | 26.67° C | 40% | 1010.6 hPa | 0 mm | - | 417 W/m² | - |
| 1777927824 | 26.67° C | 40% | 1010.9 hPa | 0 mm | - | 437 W/m² | - |
| 1777927521 | 27.78° C | 40% | 1010.7 hPa | 0 mm | - | 453 W/m² | - |
| 1777927220 | 27.78° C | 40% | 1010.9 hPa | 0 mm | - | 457 W/m² | - |
| 1777926918 | 27.22° C | 41% | 1011 hPa | 0 mm | - | 467 W/m² | - |
| 1777926615 | 26.67° C | 43% | 1011.2 hPa | 0 mm | - | 530 W/m² | - |
| 1777926310 | 27.22° C | 40% | 1011.1 hPa | 0 mm | - | 560 W/m² | - |
| 1777926007 | 27.22° C | 42% | 1011.3 hPa | 0 mm | - | 222 W/m² | - |
| 1777925704 | 27.22° C | 40% | 1011.5 hPa | 0 mm | - | 548 W/m² | - |
| 1777925402 | 27.22° C | 41% | 1011.3 hPa | 0 mm | - | 520 W/m² | - |
| 1777925098 | 27.22° C | 39% | 1011.6 hPa | 0 mm | - | 535 W/m² | - |
| 1777924795 | 27.22° C | 39% | 1011.6 hPa | 0 mm | - | 548 W/m² | - |
| 1777924491 | 27.22° C | 38% | 1011.6 hPa | 0 mm | - | 394 W/m² | - |
| 1777924188 | 27.22° C | 40% | 1011.6 hPa | 0 mm | - | 575 W/m² | - |
| 1777923884 | 27.78° C | 39% | 1011.5 hPa | 0 mm | - | 520 W/m² | - |
| 1777923580 | 27.22° C | 39% | 1011.8 hPa | 0 mm | - | 598 W/m² | - |
| 1777923277 | 27.22° C | 40% | 1011.7 hPa | 0 mm | - | 608 W/m² | - |
| 1777922976 | 26.11° C | 41% | 1012 hPa | 0 mm | - | 382 W/m² | - |
| 1777922673 | 26.67° C | 40% | 1011.9 hPa | 0 mm | - | 322 W/m² | - |
| 1777922372 | 27.22° C | 39% | 1012.1 hPa | 0 mm | - | 575 W/m² | - |
| 1777922069 | 27.22° C | 40% | 1012.1 hPa | 0 mm | - | 641 W/m² | - |
| 1777921764 | 27.22° C | 41% | 1012 hPa | 0 mm | - | 653 W/m² | - |
| 1777921460 | 26.67° C | 44% | 1012.2 hPa | 0 mm | - | 639 W/m² | - |
* Rain latest hour (hover to see other rain measurements)
** Current wind speed in m/s (hover to see current wind gust speed)